Preview of NWS' New Version of Forecast
This preview is not operational and should not be used for support decisions.
Latest weather observations around

Cincinnati, Cincinnati Municipal Airport Lunken Field (KLUK)

Using International System of Units (Switch to English Units)
Date/ Time (EDT) Wind (kph) Vis. (km) Weather Sky Cond. Temp (°C) Rel. Humidity Wind Chill (°C) Heat Index (°C) Pressure Precip. (cm)
Air Dwpt 6 hour Altimeter (hPa) Sea level (hPa) 1 hr 3 hr 6 hr
Max Min
Jun 26 17:53 SSW 18 16.09 Mostly Clear FEW060 31 20     52%   33 1019.3 1018.7      
Jun 26 16:53 SSW 17 16.09 Clear CLR 31 19     51%   32 1019.3 1018.9      
Jun 26 15:53 SW 22 16.09 Clear CLR 32 19     48%   33 1019.7 1019.1      
Jun 26 14:53 SSW 9 16.09 Clear CLR 31 19     50%   33 1019.7 1019.3      
Jun 26 13:53 Calm 16.09 Clear CLR 31 17     43%   31 1020.3 1019.9      
Jun 26 12:53 8 16.09 Clear CLR 29 19     53%   31 1020.7 1020.1      
Jun 26 11:53 WSW 11 16.09 Clear CLR 28 19     57%   30 1021 1020.4      
Jun 26 10:53 SW 11 16.09 Clear CLR 27 19     62%   29 1020.3 1019.9      
Jun 26 09:53 SW 9 16.09 Clear CLR 26 20     71%   26 1020.7 1020.3      
Jun 26 08:53 Calm 16.09 Clear CLR 24 19     74%   24 1020.7 1020.1      
Jun 26 07:53 Calm 16.09 Mostly Clear FEW090 19 18     93%     1020 1019.7      
Jun 26 06:53 Calm 16.09 Clear CLR 18 17     93%     1019.7 1019.4      
Jun 26 05:53 Calm 16.09 Clear CLR 18 17     93%     1019 1018.5      
Jun 26 04:53 WSW 8 16.09 Clear CLR 18 17     93%     1019 1018.5      
Jun 26 03:53   16.09 Clear CLR 18 17     96%     1018.6 1018.4      
Jun 26 02:53 SSW 5 16.09 Clear CLR 18 18     100%     1018.6 1018.1      
Jun 26 01:53 Calm 16.09 Clear CLR 18 18     97%     1018.6 1018.1      
Jun 26 00:53 SSE 5 16.09 Clear CLR 18 18     97%     1018.3 1017.8      
Jun 25 23:53 Calm 16.09 Clear CLR 20 18     87%     1017.6 1017.3      
Jun 25 22:53 Calm 16.09 Clear CLR 21 18     87%     1017.3 1016.9      
Jun 25 21:53 SW 5 16.09 Clear CLR 22 18     79%   22 1016.6 1016.2      
Jun 25 20:53 S 9 16.09 Clear CLR 23 17     69%   23 1016.3 1016      
Jun 25 19:53 SSW 17 16.09 Clear CLR 26 16     52%   26 1016.3 1015.7      
Jun 25 18:53 SW 18 16.09 Mostly Clear FEW075 27 16     49%   28 1015.9 1015.5      
Jun 25 17:53 WSW 15 16.09 Mostly Clear FEW060 28 17     51%   28 1016.3 1015.7      
Jun 25 16:53 W 22 16.09 Clear CLR 28 16     48%   29 1016.3 1015.7      
Jun 25 15:53 SW 18 16.09 Mostly Clear FEW060 28 16     48%   29 1016.3 1015.9      
Jun 25 14:53   16.09 Partly Cloudy SCT040 28 17     49%   29 1016.9 1016.3      
Jun 25 13:53 WSW 22 16.09 Mostly Clear FEW040 27 17     53%   28 1016.9 1016.5      
Jun 25 12:53 W 13 16.09 Mostly Clear FEW040 27 17     56%   27 1017.3 1016.6      
Jun 25 11:53 WNW 13 16.09 Clear CLR 26 17     56%   26 1016.9 1016.5      
Jun 25 10:53 SW 9 16.09 Clear CLR 24 18     69%   25 1016.6 1016.2      
Jun 25 09:53 WSW 13 16.09 Clear CLR 23 18     76%   23 1016.3 1015.9      
Jun 25 08:53 WSW 11 16.09 Clear CLR 22 18     81%   22 1015.9 1015.5      
Jun 25 07:53 WSW 9 16.09 Clear CLR 19 18     90%     1015.2 1014.7      
Jun 25 06:53 SSW 8 16.09 Clear CLR 18 17     93%     1014.6 1014.1      
Jun 25 05:53 SSW 11 16.09 Clear CLR 18 17     93%     1013.6 1013.3      
Jun 25 04:53 S 8 16.09 Clear CLR 19 18     93%     1012.5 1012.3      
Jun 25 03:53 SSW 5 16.09 Clear CLR 19 18     93%     1012.2 1011.6      
Jun 25 02:53 S 8 16.09 Clear CLR 19 18     93%     1011.9 1011.3      
Jun 25 01:53 SSW 13 16.09 Partly Cloudy FEW041 SCT075 SCT095 21 19     93%     1011.5 1011.1 0   0
Jun 25 00:53 SW 13 16.09 Mostly Cloudy FEW023 SCT036 BKN055 21 19     90%     1010.8 1010.6 0    
Jun 24 23:53 Calm 16.09 Mostly Clear FEW080 20 19     93%     1010.5 1010      
Jun 24 22:53 SW 8 16.09 Clear CLR 20 19     93%     1010.2 1009.7      
Jun 24 21:53 SSW 8 16.09 Clear CLR 20 19     93%     1009.5 1009.1      
Jun 24 20:53 S 11 16.09 Clear   22 19     84%   23 1009.2 1008.9      
Jun 24 19:53 WSW 11 16.09 Mostly Cloudy FEW023 BKN034 23 19     79%   24 1008.8 1008.3     2
Jun 24 18:53 W 21 16.09 Cloudy BKN022 BKN029 OVC035 23 20     82%   24 1007.5 1007      
Jun 24 17:53 WSW 11 16.09 Clear   23 21     90%   23 1006.4 1006.3 0    
Jun 24 17:35 SW 11 16.09 Mostly Cloudy SCT012 BKN020 BKN027 23 21     90%   23 1006.4   0    
Jun 24 16:53 SW 8 4.83 Heavy Rain and Fog/Mist BKN036 OVC060 21 20     93%     1006.4 1006.1 2 2  
Jun 24 16:46 WSW 8 3.22 Heavy Rain and Fog/Mist FEW009 BKN033 OVC050 21 20     93%     1006.4   2    
Jun 24 16:36 W 21 1.61 Heavy Rain and Fog/Mist FEW007 BKN025 OVC050 21 20     93%     1006.8   2    
Jun 24 16:30 WSW 26 1.61 Heavy Rain and Fog/Mist FEW007 BKN023 OVC030 22 21     93%   22 1006.8   1    
Jun 24 16:18 W 17 1.61 Fog/Mist FEW008 BKN013 OVC037 22 22     97%   23 1006.8   1    
Jun 24 16:10   4.02 Fog/Mist FEW012 BKN029 OVC037 23 22     91%   24 1006.8   0    
Jun 24 16:00 Calm 4.02 Light Rain and Fog/Mist BKN036 OVC043 24 22     88%   25 1005.8   0    
Jun 24 15:53 8 6.44 Light Rain and Fog/Mist BKN040 OVC049 24 22     88%   25 1005.8 1005.3 0    
Jun 24 14:53 5 16.09 Mostly Cloudy SCT035 BKN070 26 21     74%   26 1006.8 1006.4 0    
Jun 24 13:53 SW 18 6.44 Light Rain and Fog/Mist FEW027 BKN080 OVC095 24 21     79%   25 1008.8 1008.3 0   0
Jun 24 13:38 SSW 18 6.44 Light Rain and Fog/Mist SCT027 BKN070 OVC085 24 20     76%   25 1008.8   0    
Jun 24 12:53 SW 18 16.09 Mostly Cloudy BKN110 26 20     71%   26 1008.8 1008.4      
Jun 24 11:53 SW 11 16.09 Mostly Cloudy BKN070 BKN100 26 21     74%   26 1009.2 1008.8      
Jun 24 10:53 SSW 13 16.09 Mostly Cloudy SCT075 BKN100 26 21     74%   26 1009.5 1009      
Jun 24 09:53 S 13 16.09 Mostly Cloudy BKN110 23 20     82%   24 1009.8 1009.4      
Jun 24 08:53 S 17 16.09 Clear CLR 23 21     85%   24 1009.8 1009.3      
Jun 24 06:53 SSW 8 16.09 Clear CLR 19 18     96%     1009.5 1009.1      
Jun 24 06:41 Calm 4.83 Fog/Mist CLR 19 18     96%     1009.5        
Jun 24 06:16 Calm 2.41 Fog/Mist CLR 18 18     100%     1009.5        
Jun 24 05:58 Calm 4.83 Fog/Mist CLR 18 18     97%     1009.2        
Jun 24 05:53 Calm 1.61 Fog/Mist CLR 18 18     100%     1009.2 1008.7      
Jun 24 05:42 Calm 0.8 Fog VV002 18 18     100%     1009.2        
Jun 24 05:34 Calm 2.41 Fog/Mist CLR 18 18     100%     1009.2        
Jun 24 04:53 Calm 16.09 Clear CLR 19 18     96%     1009.2 1008.8   0  
Jun 24 03:53 SSW 9 16.09 Clear CLR 20 19     93%     1009.2 1008.6      
Jun 24 02:53 SSW 9 16.09 Clear CLR 20 19     93%     1009.8 1009.3 0    
Jun 24 01:53 8 16.09 Clear CLR 19 19     97%     1010.5 1009.9 0   0
Jun 24 00:53 SSW 8 16.09 Light Rain BKN042 BKN055 21 19     93%     1011.2 1010.8 0    
Jun 23 23:53 S 9 16.09 Mostly Cloudy SCT055 BKN070 BKN090 21 19     90%     1011.2 1010.6      
Jun 23 22:53 S 15 16.09 Clear CLR 21 19     90%     1011.5 1011.1   0  
Jun 23 22:28 S 11 12.87 Partly Cloudy SCT007 21 19     90%     1011.9        
Jun 23 21:53 S 8 12.87 Mostly Cloudy BKN007 21 20     96%     1011.5 1011.2      
Jun 23 21:38 SSW 11 12.87 Partly Cloudy SCT007 21 20     96%     1011.9        
Jun 23 20:53 5 12.87 Mostly Clear FEW100 21 19     93%     1012.2 1011.7 0    
Jun 23 19:08 8 11.27 Light Rain SCT055 SCT095 BKN110 21 19     90%     1013.6        
Jun 23 18:53 SSE 8 6.44 Thunderstorms and Rain and Fog/Mist FEW055 BKN070 OVC110 21 19     90%     1014.6 1014.2 0    
Jun 23 18:38 SW 22 4.02 Thunderstorms and Rain SCT060 BKN075 OVC120 21 18     84%     1014.9   0    
Jun 23 18:16 W 22 6.44 Thunderstorms and Rain SCT036 OVC044 22 18     76%   22 1014.9   0    
Jun 23 18:08   16.09 Thunderstorms and Rain SCT036 OVC044 25 18     66%   25 1014.6   0    
Jun 23 17:53 S 11 16.09 Cloudy BKN042 OVC048 28 23     74%   31 1012.9 1012.4      
Jun 23 16:53 S 11 16.09 Partly Cloudy SCT036 28 22     67%   31 1013.2 1012.7      
Jun 23 15:53 SSW 18 16.09 Mostly Cloudy BKN030 28 22     67%   31 1014.2 1013.8      
May 14 18:53 SW 18 16.09 Mostly Clear FEW070 29 18     51%   30 1011.9 1011.3      
Notice The following observation data may not be complete
May 14 05:19 Calm 2.82 Fog/Mist CLR   18      %     1015.9        
May 12 20:53 Calm 16.09 Clear CLR 24 19     74%   25 1015.9 1015.3      
Notice The following observation data may not be complete
May 12 00:53 WSW 8 16.09 Clear CLR   17      %     1015.6 1015.3      
May 11 16:53   16.09 Mostly Clear FEW075 29 16     45%   30 1013.2 1012.7      
Jun 11 12:53   16.09 Mostly Clear FEW060 30 18     48%   31 1020 1019.5      
Jun 10 18:53 S 22 16.09 Clear CLR 28 17     51%   28 1015.6 1015      
Jun 10 15:53 SSW 22 16.09 Clear CLR 29 17     48%   29 1016.3 1015.8      
Jun 10 14:53 SSW 17 16.09 Clear CLR 28 14     43%   28 1016.6 1016.1      
Jun 10 11:53 SSW 18 16.09 Clear CLR 27 16     52%   27 1017.6 1017.2      
Notice The following observation data may not be complete
Jun 09 06:24 Calm 1.21 Fog/Mist CLR   9      %     1013.6        
Jun 08 05:14 Calm 6.44 Fog/Mist CLR 10 10     100%     1016.6        
Jun 07 12:53 NE 15 16.09 Clear   18 12     70%     1016.9 1016.6      
Jun 05 17:37 SSW 9 16.09 Clear CLR 20 18     90%     1006.8   0